This is the latest recevied weather packets stored in our database for station/object K6CQU-13. If no packets are shown the sender has not sent any weather packets the latest 10 day(s).
| Time | Temp. | Humidity | Pressure | Rain* | Wind** | Luminosity | Snow |
|---|---|---|---|---|---|---|---|
| 1787717417 | 23.89° C | 58% | 1014.4 hPa | 0 mm | - | 0 W/m² | - |
| 1787717117 | 24.44° C | 57% | 1014.4 hPa | 0 mm | - | 0 W/m² | - |
| 1787716817 | 24.44° C | 54% | 1014.3 hPa | 0 mm | - | 0 W/m² | - |
| 1787716517 | 25° C | 53% | 1014.3 hPa | 0 mm | - | 0 W/m² | - |
| 1787716217 | 25° C | 52% | 1014.1 hPa | 0 mm | - | 0 W/m² | - |
| 1787715917 | 25° C | 52% | 1014.1 hPa | 0 mm | - | 0 W/m² | - |
| 1787715617 | 25.56° C | 50% | 1014 hPa | 0 mm | - | 0 W/m² | - |
| 1787715317 | 25.56° C | 50% | 1014 hPa | 0 mm | - | 0 W/m² | - |
| 1787715017 | 26.11° C | 49% | 1013.9 hPa | 0 mm | - | 0 W/m² | - |
| 1787714717 | 26.11° C | 47% | 1013.9 hPa | 0 mm | - | 0 W/m² | - |
| 1787714417 | 26.11° C | 48% | 1013.8 hPa | 0 mm | - | 0 W/m² | - |
| 1787714117 | 26.67° C | 47% | 1013.8 hPa | 0 mm | - | 0 W/m² | - |
| 1787713818 | 26.67° C | 47% | 1013.9 hPa | 0 mm | - | 0 W/m² | - |
| 1787713517 | 26.67° C | 47% | 1013.7 hPa | 0 mm | - | 0 W/m² | - |
| 1787713217 | 27.22° C | 46% | 1013.7 hPa | 0 mm | - | 3 W/m² | - |
| 1787712917 | 27.22° C | 46% | 1013.7 hPa | 0 mm | - | 4 W/m² | - |
| 1787712617 | 27.22° C | 45% | 1013.6 hPa | 0 mm | - | 5 W/m² | - |
| 1787712317 | 27.22° C | 46% | 1013.5 hPa | 0 mm | - | 8 W/m² | - |
| 1787712017 | 27.78° C | 45% | 1013.5 hPa | 0 mm | - | 16 W/m² | - |
| 1787711717 | 27.78° C | 45% | 1013.4 hPa | 0 mm | - | 23 W/m² | - |
| 1787711417 | 27.78° C | 44% | 1013.5 hPa | 0 mm | - | 26 W/m² | - |
| 1787711117 | 28.33° C | 44% | 1013.3 hPa | 0 mm | - | 29 W/m² | - |
| 1787710817 | 28.33° C | 42% | 1013.2 hPa | 0 mm | - | 37 W/m² | - |
| 1787710517 | 28.33° C | 42% | 1013.2 hPa | 0 mm | - | 42 W/m² | - |
| 1787710217 | 28.33° C | 42% | 1013.2 hPa | 0 mm | - | 46 W/m² | - |
* Rain latest hour (hover to see other rain measurements)
** Current wind speed in m/s (hover to see current wind gust speed)